Location: Grezzana
(45.5167°N, 11.0167°E)
Time: 12:41:19
(UTC+00:00)

Daily predictions for brighter satellites

Satellite Brightness Start Highest point End
(mag) Time Altitude Azimuth Time Altitude Azimuth Time Altitude Azimuth
Exosat Rocket 3.8 15:58:19 10° S 16:03:29 51° ESE 16:08:21 10° NNE
Helios 1A Rocket 3.2 16:04:18 10° S 16:08:24 75° WSW 16:12:31 10° NNW
FALCON 9 DEB 4.3 16:06:43 10° SSW 16:09:50 31° SE 16:12:58 10° ENE
Meteor 1-11 Rocket 3.9 16:05:03 10° N 16:11:00 64° ENE 16:16:52 10° SSE
Cosmos 1980 3.9 16:05:50 10° S 16:11:18 54° ESE 16:16:48 10° NE
ATLAS 2AS CENTAUR R/B 3.9 16:03:57 10° WSW 16:11:31 43° NW 16:19:02 10° NNE
Meteor 1-27 Rocket 4.0 16:07:03 10° SSE 16:12:35 52° E 16:18:17 10° NNE
COSMO-SKYMED 1 4.3 16:11:37 10° ENE 16:13:53 14° E 16:16:10 10° ESE
SMAP 3.2 16:12:45 10° SSE 16:17:16 52° ENE 16:21:48 10° N
Nadezhda 4 Rocket 4.2 16:12:20 10° SSE 16:18:29 56° E 16:24:38 10° NNE
Cosmos 2297 4.4 16:14:18 10° N 16:19:22 31° NE 16:24:22 10° ESE
Okean 1-7 4.4 16:16:32 10° SE 16:19:36 19° E 16:22:42 10° NE
YAOGAN 1 4.2 16:18:32 10° E 16:20:37 13° ENE 16:22:42 10° NNE
H-2A R/B 2.9 16:18:46 10° SSE 16:22:19 47° ENE 16:25:52 10° N
Cosmos 1441 Rocket 4.4 16:19:57 10° NNE 16:22:56 21° ENE 16:25:52 10° ESE
AQUARIUS 4.2 16:21:39 10° SSE 16:26:03 57° ENE 16:30:28 10° N
ALOS 4.0 16:23:15 10° SSW 16:27:33 36° W 16:31:52 10° NNW
RESURS DK-1 3.5 16:26:43 10° SW 16:30:38 41° WNW 16:34:35 10° NNE
Cosmos 1733 Rocket 3.2 16:26:14 10° NNW 16:30:39 79° W 16:35:01 10° S
COSMOS 2428 3.6 16:27:58 10° SW 16:33:27 48° WNW 16:38:58 10° NNE
STARLINK-52 3.9 16:32:38 10° SSW 16:35:58 41° SE 16:38:18 17° ENE
Cosmos 1900 4.3 16:31:13 10° NNW 16:36:08 88° NE 16:41:00 10° SSE
Genesis I 3.6 16:35:28 10° NNW 16:39:11 40° NE 16:42:49 10° ESE
USA 215 3.5 16:33:27 11° NE 16:39:48 68° NNW 16:46:16 10° WSW
Cosmos 2026 Rocket 4.4 16:34:58 10° SSE 16:40:27 37° E 16:45:56 10° NNE
Cosmos 1263 4.5 16:38:15 10° SSE 16:41:08 43° E 16:43:47 12° NNE
ISS -1.9 16:38:18 10° WNW 16:41:22 33° SW 16:44:26 10° SSE
Feng Yun 1-1 Rocket 4.2 16:36:20 10° SSE 16:41:43 89° ENE 16:47:09 10° NNW
Cosmos 292 Rocket 3.8 16:38:09 10° NNW 16:43:01 63° ENE 16:47:48 10° SSE
STARLINK-29 3.5 16:40:38 10° SW 16:44:05 54° SE 16:46:13 21° ENE
Cosmos 1666 2.7 16:41:59 10° N 16:45:40 55° E 16:49:19 10° SSE
Cosmos 1536 2.8 16:43:44 10° N 16:47:47 89° WSW 16:51:46 10° S
Cosmos 921 Rocket 3.5 16:44:25 10° N 16:48:25 37° ENE 16:52:28 10° SE
NOSS 0 Rocket 4.2 16:45:19 10° SW 16:51:31 70° WNW 16:57:46 10° NNE
STARLINK-60 3.0 16:48:37 10° WSW 16:52:00 86° NNW 16:53:48 25° NE
NOAA 12 4.0 16:50:01 10° SSE 16:55:19 76° ENE 17:00:36 10° N
Lacrosse 5 rocket 2.5 16:54:25 10° W 16:58:20 34° NNW 17:00:53 17° NNE
Cosmos 2251 Rocket 4.2 16:53:09 10° SW 16:58:21 55° WNW 17:03:32 10° NNE
Cosmos 2278 Rocket 3.3 16:53:08 10° NW 16:58:34 49° WSW 17:03:57 10° S
BREEZE-M R/B 3.3 16:53:19 10° WNW 16:58:45 47° N 17:00:16 28° ENE
COBE Rocket 3.9 16:55:43 10° N 17:00:22 76° WNW 17:05:04 10° SSW
SKYMED 2 3.9 16:59:20 17° NNE 17:02:25 42° E 17:06:31 10° S
Cosmos 1782 Rocket 3.6 16:58:27 10° N 17:02:42 50° ENE 17:06:55 10° SSE
SL-4 R/B 2.9 17:02:17 10° WNW 17:05:47 33° N 17:07:13 25° NE
Envisat 2.9 17:00:45 10° SSE 17:05:49 79° ENE 17:10:55 10° N
FengYun 1-2 T 4.2 17:00:34 10° SSE 17:05:56 60° ENE 17:11:21 10° N
Aureole 1 Rocket 2.0 17:04:15 10° SSW 17:07:13 89° NW 17:08:48 27° NNE
Okean 2 Rocket 4.3 17:04:30 10° NNE 17:13:21 - SE 17:06:56 23° NE
Okean 1 3.7 17:04:50 10° SSE 17:08:33 39° E 17:09:47 31° NE
Sich 1 Rocket 3.8 17:04:29 10° N 17:08:44 44° ENE 17:12:55 10° SSE
Cosmos 1140 Rocket 4.1 17:05:05 10° SSE 17:09:41 35° ESE 17:11:21 28° ENE
Cosmos 2369 Rocket 3.1 17:06:09 10° N 17:10:46 25° NE 17:11:13 25° ENE
Cosmos 1627 Rocket 4.4 17:05:27 10° S 17:11:29 69° E 17:17:36 10° NNE
CZ-4 R/B 1.5 17:07:46 10° SE 17:11:29 45° ENE 17:15:12 10° N
Cosmos 1703 Rocket 3.5 17:09:08 10° S 17:13:37 82° E 17:18:07 10° N
SL-16 R/B 2.2 17:08:30 10° S 17:14:04 61° ESE 17:17:46 22° NE
USA 267 3.7 17:07:37 10° SE 17:14:05 63° SW 17:20:35 10° NW
Cosmos 1743 2.8 17:10:32 10° N 17:14:19 50° ENE 17:18:05 10° SSE
Cosmos 407 Rocket 3.5 17:10:23 10° S 17:15:27 57° ESE 17:18:34 23° NE
Cosmos 2195 Rocket 4.4 17:11:15 10° S 17:17:29 83° E 17:23:49 10° N
Cosmos 1655 Rocket 4.5 17:13:11 10° SSE 17:18:52 37° E 17:22:34 20° NE
YAOGAN 6 2.4 17:15:52 10° SSE 17:19:24 75° ENE 17:22:59 10° N
USA 229 DEB 4.5 17:16:10 10° NNW 17:22:38 35° NE 17:24:57 29° ENE
USA 229 4.5 17:16:17 10° NNW 17:22:43 34° NE 17:25:01 29° ENE
Cosmos 2237 Rocket 3.1 17:18:31 10° SW 17:24:00 48° WNW 17:29:20 11° NNE
Cosmos 2333 Rocket 4.2 17:21:03 10° W 17:25:29 22° NW 17:29:57 10° N
BREEZE-M DEB (TANK) 2.4 17:22:45 10° WNW 17:26:53 52° SW 17:27:32 39° SSE
Cosmos 1092 Rocket 4.3 17:20:59 10° SSW 17:27:15 71° W 17:33:32 10° N
Shenzhou-11 Module 3.7 17:27:16 10° WSW 17:29:30 22° SSW 17:29:54 22° S
Meteor 1-19 Rocket 4.2 17:29:40 10° S 17:35:00 52° E 17:36:58 35° NE
Meteor 2-4 Rocket 4.4 17:29:46 10° SSE 17:34:31 35° ESE 17:34:31 35° ESE
Cosmos 2219 Rocket 4.4 17:31:54 10° W 17:35:51 19° NW 17:39:51 10° N
Cosmos 1867 3.5 17:33:27 10° NNW 17:38:55 67° NE 17:41:04 36° ESE
Okean-O 3.9 17:35:11 10° S 17:39:22 42° W 17:43:36 10° NNW
BREEZE-M DEB (TANK) 1.9 17:37:36 10° W 17:41:21 79° WSW 17:41:21 79° WSW
USA 116 4.3 17:38:51 26° NNE 17:41:56 71° ESE 17:46:57 10° S
Cosmos 1943 Rocket 2.3 17:39:41 10° NNW 17:45:11 49° ENE 17:45:19 48° ENE
FALCON 9 DEB 4.0 17:43:26 10° W 17:46:30 45° NW 17:46:30 45° NW
COSMO-SKYMED 1 3.0 17:47:53 23° N 17:50:28 61° WNW 17:54:44 10° SSW
Meteor 2-13 Rocket 4.3 17:47:46 10° S 17:53:44 64° E 17:56:08 37° NNE
CSL-04 Rocket 3.6 17:48:30 10° SSE 17:53:47 85° WSW 17:59:07 10° NNW
SeaSat 1 4.4 17:59:06 16° N 17:59:06 16° N 18:00:15 10° N
YAOGAN 1 2.7 17:51:49 10° S 17:56:08 73° WSW 18:00:29 10° NNW
Okean 1-7 4.3 17:52:45 10° SSW 17:56:51 41° WNW 18:00:20 14° N
CZ-4C R/B 3.9 17:53:36 10° SSE 17:54:43 16° SSE 17:54:43 16° SSE
S3M 3.8 17:54:07 10° N 18:00:22 77° E 18:06:30 10° SSE
DMSP B5D1-3 4.4 18:09:33 74° SSE 18:09:33 74° SSE 18:14:15 10° SSW
Cosmos 2266 Rocket 4.1 18:02:59 10° S 18:08:30 56° ESE 18:08:30 56° ESE
Cosmos 1190 Rocket 4.5 18:04:48 10° SW 18:09:55 58° WNW 18:11:37 39° N
Cosmos 676 Rocket 3.9 18:06:47 10° SSW 18:11:47 84° SSW 18:11:47 84° SSW
Cosmos 1553 Rocket 4.3 18:06:27 10° NNW 18:12:46 68° W 18:19:07 10° S
Cosmos 1954 Rocket 4.1 18:15:06 10° SSW 18:19:42 70° SW 18:19:42 70° SW
USA 215 4.1 18:20:48 33° NNE 18:22:12 36° NNW 18:28:03 10° WNW
Lacrosse 5 3.8 18:30:09 10° SSW 18:31:52 21° SSW 18:31:52 21° SSW
Lacrosse 5 rocket 4.1 18:35:50 10° NW 18:36:32 12° NW 18:36:32 12° NW
CZ-4 R/B 4.3 18:44:32 10° SW 18:46:46 15° W 18:49:00 10° NW
Cosmos 2369 Rocket 3.4 18:49:40 10° NNW 18:53:04 36° NW 18:53:04 36° NW
SL-16 R/B 4.0 18:53:55 10° WSW 18:58:37 26° NW 18:59:41 24° NNW
NOSS 3-1 (C) 4.1 18:57:31 10° NW 19:03:57 70° NW 19:03:57 70° NW
USA 229 DEB 4.4 19:06:59 10° NW 19:12:26 54° NW 19:12:26 54° NW
USA 229 4.4 19:07:06 10° NW 19:12:30 54° NW 19:12:30 54° NW
Cosmos 1943 Rocket 4.2 19:23:57 10° NW 19:26:54 23° WNW 19:26:54 23° WNW
Cosmos 2344 4.4 19:21:02 10° NW 19:30:54 83° SW 19:31:31 80° SSW
